EW1454 Weather Reports


time (UTC)temp
C
wind
direction
speed
KPH
gust
KPH
rain 1hr
cm
rain 24hr
cm
rain mn
cm
humidity
%
barometer
mb
20260507231614 13 22 3.2 24.1 0.00 0.00 0.00 44 1010.1
20260507231112 13 66 3.2 14.5 0.00 0.00 0.00 41 1009.9
20260507230611 13 260 4.8 14.5 0.00 0.00 0.00 40 1010.0
20260507230115 14 20 0.0 14.5 0.00 0.00 0.00 42 1009.9
20260507225611 14 355 3.2 14.5 0.00 0.00 0.00 40 1009.9
20260507225112 15 147 4.8 11.3 0.00 0.00 0.00 41 1009.9
20260507224616 15 151 3.2 11.3 0.00 0.00 0.00 40 1009.7
20260507224111 15 221 3.2 12.9 0.00 0.00 0.00 37 1009.8
20260507223612 14 331 3.2 12.9 0.00 0.00 0.00 39 1009.8
20260507223343 15 52 0.0 14.5 0.00 0.00 0.00 39 1009.6
20260507222611 15 154 0.0 14.5 0.00 0.00 0.00 40 1009.4
20260507222112 15 141 0.0 12.9 0.00 0.00 0.00 40 1009.4
20260507221614 16 124 0.0 12.9 0.00 0.00 0.00 38 1009.5
20260507221111 16 18 0.0 11.3 0.00 0.00 0.00 38 1009.6
20260507220612 15 41 0.0 11.3 0.00 0.00 0.00 39 1009.4
20260507220115 16 288 3.2 12.9 0.00 0.00 0.00 36 1009.3
20260507215613 16 33 0.0 12.9 0.00 0.00 0.00 39 1009.3
20260507215111 15 99 0.0 12.9 0.00 0.00 0.00 39 1009.5
20260507214614 15 338 3.2 14.5 0.00 0.00 0.00 38 1009.4
20260507214112 15 99 3.2 14.5 0.00 0.00 0.00 37 1009.2
20260507213612 16 308 3.2 9.7 0.00 0.00 0.00 35 1009.1
20260507213337 17 1 3.2 12.9 0.00 0.00 0.00 35 1009.1
20260507212611 16 44 0.0 12.9 0.00 0.00 0.00 38 1009.1
20260507212113 15 235 6.4 14.5 0.00 0.00 0.00 37 1009.1
20260507211614 15 307 4.8 14.5 0.00 0.00 0.00 38 1009.2
20260507211340 15 264 0.0 9.7 0.00 0.00 0.00 37 1009.0
20260507210611 15 252 3.2 17.7 0.00 0.00 0.00 36 1009.0
20260507210338 15 4 3.2 17.7 0.00 0.00 0.00 37 1008.9
20260507205613 16 314 1.6 9.7 0.00 0.00 0.00 36 1009.0
20260507205111 15 277 1.6 12.9 0.00 0.00 0.00 39 1009.1
20260507204615 15 194 4.8 16.1 0.00 0.00 0.00 38 1008.9
20260507204112 16 212 9.7 16.1 0.00 0.00 0.00 36 1009.0
20260507203611 15 45 4.8 12.9 0.00 0.00 0.00 39 1008.8
20260507203114 15 222 0.0 14.5 0.00 0.00 0.00 38 1008.9
20260507202853 16 109 3.2 22.5 0.00 0.00 0.00 40 1009.1
20260507202112 16 347 9.7 22.5 0.00 0.00 0.00 37 1009.1
20260507201615 15 155 0.0 12.9 0.00 0.00 0.00 40 1009.0
20260507201111 15 249 4.8 14.5 0.00 0.00 0.00 39 1008.9
20260507200612 15 85 3.2 14.5 0.00 0.00 0.00 41 1009.2
20260507200337 15 53 3.2 22.5 0.00 0.00 0.00 39 1009.0
20260507195611 15 101 4.8 22.5 0.00 0.00 0.00 38 1009.4
20260507195112 16 192 1.6 12.9 0.00 0.00 0.00 38 1009.1
20260507194615 16 266 3.2 14.5 0.00 0.00 0.00 38 1009.5
20260507194111 16 199 4.8 14.5 0.00 0.00 0.00 40 1009.5
20260507193611 16 212 4.8 19.3 0.00 0.00 0.00 39 1009.2
20260507193117 15 302 4.8 27.4 0.00 0.00 0.00 41 1009.5
20260507192611 16 171 3.2 27.4 0.00 0.00 0.00 42 1009.6
20260507192111 16 280 4.8 17.7 0.00 0.00 0.00 41 1009.7
20260507191615 15 220 3.2 17.7 0.00 0.00 0.00 42 1009.7
20260507191111 15 338 3.2 14.5 0.00 0.00 0.00 43 1009.4
20260507190612 15 215 1.6 14.5 0.00 0.00 0.00 44 1009.3
20260507190116 15 280 9.7 14.5 0.00 0.00 0.00 42 1009.5
20260507185611 15 174 6.4 17.7 0.00 0.00 0.00 42 1009.7
20260507185112 15 230 3.2 25.7 0.00 0.00 0.00 42 1009.7
20260507184615 15 210 3.2 25.7 0.00 0.00 0.00 42 1009.5
20260507184335 15 37 1.6 16.1 0.00 0.00 0.00 47 1009.7
20260507183612 15 219 4.8 16.1 0.00 0.00 0.00 42 1009.9
20260507183114 15 210 4.8 14.5 0.00 0.00 0.00 43 1009.7
20260507182611 15 43 6.4 16.1 0.00 0.00 0.00 44 1009.9
20260507182112 15 29 3.2 17.7 0.00 0.00 0.00 43 1009.7
20260507181615 16 191 4.8 17.7 0.00 0.00 0.00 43 1009.9
20260507181113 15 219 12.9 14.5 0.00 0.00 0.00 43 1009.8
20260507180612 17 159 8.0 14.5 0.00 0.00 0.00 43 1010.0
20260507180116 16 209 4.8 19.3 0.00 0.00 0.00 42 1010.2
20260507175612 16 251 3.2 22.5 0.00 0.00 0.00 43 1010.2
20260507175113 15 246 3.2 22.5 0.00 0.00 0.00 41 1010.1
20260507174840 16 160 19.3 19.3 0.00 0.00 0.00 43 1010.1
20260507174332 15 315 4.8 12.9 0.00 0.00 0.00 45 1010.1
20260507173829 15 42 3.2 11.3 0.00 0.00 0.00 42 1010.3
20260507173339 16 123 3.2 17.7 0.00 0.00 0.00 41 1010.3
20260507172612 15 248 6.4 17.7 0.00 0.00 0.00 42 1010.3
20260507172112 15 176 4.8 14.5 0.00 0.00 0.00 43 1010.6
20260507171614 15 137 6.4 9.7 0.00 0.00 0.00 46 1010.5
20260507171111 14 38 0.0 11.3 0.00 0.00 0.00 46 1010.6
20260507170834 14 23 6.4 11.3 0.00 0.00 0.00 44 1010.9
20260507170114 14 62 4.8 12.9 0.00 0.00 0.00 43 1011.1
20260507165613 14 232 3.2 14.5 0.00 0.00 0.00 42 1010.7
20260507165113 14 30 3.2 14.5 0.00 0.00 0.00 44 1010.8
20260507164616 15 334 6.4 14.5 0.00 0.00 0.00 42 1010.9
20260507164112 14 250 4.8 12.9 0.00 0.00 0.00 42 1010.8
20260507163834 15 342 1.6 17.7 0.00 0.00 0.00 45 1010.9
20260507163114 15 250 6.4 17.7 0.00 0.00 0.00 44 1011.2
20260507162611 13 208 3.2 17.7 0.00 0.00 0.00 45 1011.1
20260507162335 14 132 4.8 17.7 0.00 0.00 0.00 43 1011.1
20260507161838 13 238 4.8 17.7 0.00 0.00 0.00 43 1011.2
20260507161112 15 118 3.2 14.5 0.00 0.00 0.00 43 1011.0
20260507160612 13 355 3.2 14.5 0.00 0.00 0.00 46 1011.2
20260507160115 14 323 3.2 17.7 0.00 0.00 0.00 44 1011.1
20260507155836 14 164 3.2 17.7 0.00 0.00 0.00 49 1011.1
20260507155112 13 203 4.8 16.1 0.00 0.00 0.00 45 1011.3
20260507154615 13 166 3.2 17.7 0.00 0.00 0.00 45 1011.3
20260507154111 13 66 6.4 17.7 0.00 0.00 0.00 47 1011.3
20260507153612 13 184 0.0 9.7 0.00 0.00 0.00 52 1011.6
20260507153114 12 242 3.2 11.3 0.00 0.00 0.00 49 1011.5
20260507152611 13 258 4.8 11.3 0.00 0.00 0.00 47 1011.6
20260507152333 13 256 0.0 11.3 0.00 0.00 0.00 51 1011.3
20260507151616 14 72 3.2 9.7 0.00 0.00 0.00 48 1011.7
20260507151111 13 13 3.2 11.3 0.00 0.00 0.00 51 1011.7
20260507150842 13 131 3.2 11.3 0.00 0.00 0.00 48 1011.8
20260507150115 13 344 3.2 9.7 0.00 0.00 0.00 49 1011.8
20260507145612 13 152 1.6 14.5 0.00 0.00 0.00 49 1011.8
20260507145112 12 251 1.6 14.5 0.00 0.03 0.00 48 1011.9
20260507144616 12 295 3.2 12.9 0.00 0.03 0.00 50 1012.0
20260507144112 12 203 0.0 12.9 0.00 0.03 0.00 52 1012.1
20260507143611 12 206 4.8 12.9 0.00 0.03 0.00 52 1012.0
20260507143114 12 126 6.4 12.9 0.00 0.03 0.00 52 1012.2
20260507142611 12 196 3.2 9.7 0.00 0.03 0.00 53 1012.3
20260507142111 12 27 0.0 9.7 0.00 0.03 0.00 60 1012.3
20260507141615 12 142 4.8 9.7 0.00 0.03 0.00 58 1012.7
20260507141332 11 280 9.7 9.7 0.00 0.03 0.00 56 1012.5
20260507140612 11 139 3.2 9.7 0.00 0.03 0.00 64 1012.8
20260507140115 11 185 3.2 6.4 0.00 0.03 0.00 61 1012.7
20260507135613 11 21 3.2 9.7 0.00 0.05 0.00 63 1012.7
20260507135112 11 202 1.6 9.7 0.00 0.05 0.00 65 1012.8
20260507134615 11 155 3.2 9.7 0.00 0.05 0.00 65 1012.8
20260507134112 10 271 6.4 9.7 0.00 0.05 0.00 64 1012.6
20260507133611 10 131 4.8 9.7 0.00 0.05 0.00 65 1012.9
20260507133115 10 171 3.2 11.3 0.00 0.05 0.00 65 1013.0
20260507132613 10 121 3.2 12.9 0.00 0.05 0.00 67 1013.2
20260507132111 10 231 3.2 12.9 0.00 0.05 0.00 68 1013.1
20260507131614 10 300 3.2 8.0 0.00 0.08 0.00 68 1013.0
20260507131111 10 197 0.0 8.0 0.00 0.10 0.00 67 1013.0
20260507130611 10 66 0.0 8.0 0.00 0.10 0.00 71 1012.9
20260507130116 10 140 3.2 6.4 0.00 0.10 0.00 72 1012.8
20260507125611 9 151 1.6 6.4 0.00 0.10 0.00 73 1013.0
20260507125113 9 189 3.2 9.7 0.00 0.10 0.00 76 1013.0
20260507124615 9 131 4.8 9.7 0.00 0.10 0.00 77 1012.9
20260507124112 8 144 3.2 8.0 0.00 0.10 0.00 78 1013.1
20260507123612 8 137 1.6 8.0 0.00 0.10 0.00 80 1013.0
20260507123114 8 134 3.2 6.4 0.00 0.10 0.00 82 1013.2
20260507122611 7 135 4.8 6.4 0.00 0.10 0.00 84 1013.0
20260507122111 7 214 1.6 6.4 0.00 0.10 0.00 86 1012.9
20260507121616 6 110 0.0 6.4 0.00 0.13 0.00 91 1012.9
20260507121112 6 107 3.2 3.2 0.00 0.15 0.00 95 1013.2
20260507120612 6 117 3.2 3.2 0.00 0.15 0.00 97 1013.0
20260507120115 5 193 0.0 3.2 0.00 0.18 0.00 97 1013.3
20260507115611 5 32 0.0 3.2 0.00 0.20 0.00 97 1013.3
20260507115329 5 51 1.6 3.2 0.00 0.20 0.00 97 1012.8
20260507114616 4 89 0.0 3.2 0.00 0.20 0.00 97 1013.0
20260507114339 4 116 0.0 3.2 0.00 0.20 0.00 97 1013.0
20260507113612 3 89 0.0 3.2 0.00 0.20 0.00 97 1013.0
20260507113116 3 131 0.0 4.8 0.00 0.20 0.00 97 1012.7
20260507112832 3 101 0.0 4.8 0.00 0.20 0.00 97 1012.8
20260507112113 3 62 1.6 4.8 0.00 0.23 0.00 97 1012.7
20260507111615 3 70 0.0 3.2 0.00 0.23 0.00 97 1012.5
20260507111111 3 89 0.0 3.2 0.00 0.23 0.00 97 1012.8
20260507110841 2 146 0.0 3.2 0.00 0.23 0.00 97 1012.5
20260507110115 2 103 1.6 3.2 0.00 0.23 0.00 97 1012.5
20260507105612 2 92 0.0 3.2 0.00 0.25 0.00 97 1012.6
20260507105111 2 86 0.0 3.2 0.00 0.30 0.00 97 1012.5
20260507104841 2 89 1.6 3.2 0.00 0.33 0.00 97 1012.5
20260507104113 2 72 0.0 3.2 0.00 0.36 0.00 96 1012.7
20260507103842 2 84 1.6 3.2 0.00 0.36 0.00 96 1012.4
20260507103114 2 75 0.0 3.2 0.00 0.38 0.00 96 1012.4
20260507102612 2 63 0.0 3.2 0.00 0.41 0.00 96 1012.4
20260507102111 2 116 0.0 4.8 0.00 0.43 0.00 96 1012.2
20260507101614 2 86 0.0 4.8 0.00 0.51 0.00 96 1012.3
20260507101333 2 76 1.6 3.2 0.00 0.58 0.00 96 1012.5
20260507100612 2 80 0.0 3.2 0.00 0.61 0.00 96 1012.3
20260507095611 2 99 0.0 3.2 0.00 0.74 0.00 96 1012.1
20260507095113 2 54 1.6 4.8 0.00 0.76 0.00 96 1012.1
20260507094614 2 86 1.6 4.8 0.00 0.79 0.00 96 1012.2
20260507094111 2 71 0.0 4.8 0.00 0.79 0.00 96 1012.4
20260507093614 2 70 1.6 3.2 0.00 0.81 0.00 96 1012.3
20260507093114 2 77 3.2 3.2 0.00 0.84 0.00 95 1012.3
20260507092611 2 102 3.2 3.2 0.00 0.86 0.00 95 1012.1
20260507092111 2 84 0.0 3.2 0.00 0.89 0.00 95 1012.6
20260507091615 2 63 1.6 3.2 0.00 0.91 0.00 95 1012.3
20260507091111 2 93 1.6 3.2 0.00 0.99 0.00 95 1012.4
20260507090611 2 72 3.2 4.8 0.00 1.02 0.00 95 1012.5
20260507090115 2 76 1.6 4.8 0.00 1.07 0.00 95 1012.4
20260507085613 2 72 1.6 3.2 0.00 1.09 0.00 94 1012.3
20260507085111 3 67 0.0 3.2 0.00 1.12 0.00 94 1012.4
20260507084615 3 124 0.0 3.2 0.00 1.14 0.00 94 1012.6
20260507084111 3 70 1.6 3.2 0.00 1.17 0.00 94 1012.3
20260507083613 3 66 0.0 4.8 0.00 1.17 0.00 94 1012.2
20260507083115 3 72 3.2 4.8 0.00 1.19 0.00 94 1012.2
20260507082612 3 46 0.0 3.2 0.00 1.22 0.00 93 1012.3
20260507082113 3 88 0.0 3.2 0.00 1.24 0.00 93 1012.4
20260507081836 3 111 1.6 3.2 0.00 1.27 0.00 93 1012.2
20260507081112 3 72 0.0 3.2 0.00 1.27 0.00 93 1012.2
20260507080611 3 112 1.6 4.8 0.00 1.27 0.00 92 1012.2
20260507080115 3 70 3.2 4.8 0.00 1.27 0.00 92 1012.3
20260507075617 4 92 0.0 4.8 0.00 1.27 0.00 91 1012.2
20260507075611 4 98 3.2 4.8 0.00 1.27 0.00 92 1012.3
20260507074615 4 93 0.0 4.8 0.00 1.27 0.00 91 1012.4
20260507074111 4 69 1.6 4.8 0.00 1.27 0.00 91 1012.3
20260507073612 4 79 1.6 3.2 0.00 1.27 0.00 90 1012.4
20260507073115 5 105 1.6 4.8 0.00 1.27 0.00 89 1012.4
20260507072614 5 55 0.0 4.8 0.00 1.30 0.00 89 1012.1
20260507072111 5 79 0.0 3.2 0.00 1.30 0.00 88 1012.2
20260507071615 5 72 3.2 3.2 0.00 1.30 0.00 88 1012.3
20260507071111 5 61 3.2 3.2 0.00 1.32 0.00 87 1012.4
20260507070611 6 130 0.0 3.2 0.00 1.32 0.00 86 1012.2
20260507070337 6 99 1.6 3.2 0.00 1.35 0.00 85 1012.3
20260507065611 6 70 1.6 3.2 0.00 1.35 0.00 84 1012.2
20260507065112 6 75 1.6 3.2 0.00 1.35 0.00 83 1012.5
20260507064616 6 81 0.0 3.2 0.00 1.37 0.00 81 1012.4
20260507064111 7 60 0.0 3.2 0.00 1.37 0.00 81 1012.5
20260507063612 7 61 0.0 3.2 0.00 1.37 0.00 80 1012.4
20260507063337 7 73 1.6 3.2 0.00 1.37 0.00 79 1012.4
20260507062613 7 75 0.0 3.2 0.00 1.40 0.00 79 1012.4
20260507062112 7 40 1.6 3.2 0.00 1.40 0.00 79 1012.5
20260507061634 8 113 0.0 3.2 0.00 1.42 0.00 79 1012.3
20260507061616 7 71 0.0 3.2 0.00 1.42 0.00 79 1012.5
20260507060611 8 85 1.6 3.2 0.00 1.42 0.00 77 1012.6
20260507060115 8 119 1.6 3.2 0.00 1.45 0.00 76 1012.6
20260507055611 8 62 0.0 3.2 0.00 1.45 0.00 75 1012.4
20260507055111 8 72 0.0 3.2 0.00 1.45 0.00 75 1012.7
20260507054617 8 86 1.6 4.8 0.00 1.45 0.00 75 1012.7
20260507054111 8 79 1.6 4.8 0.00 1.45 0.00 77 1013.1
20260507053612 8 92 1.6 3.2 0.00 1.45 0.00 81 1013.0
20260507053114 8 91 1.6 3.2 0.00 1.45 0.00 83 1013.1
20260507052612 8 49 0.0 3.2 0.00 1.45 0.00 83 1013.1
20260507052112 8 112 0.0 3.2 0.00 1.47 0.00 83 1013.1
20260507051615 8 87 1.6 3.2 0.00 1.47 0.00 83 1013.1
20260507051111 8 105 1.6 3.2 0.00 1.50 0.00 81 1013.0
20260507050625 8 85 0.0 3.2 0.00 1.50 0.00 81 1012.9
20260507050116 8 71 1.6 3.2 0.00 1.50 0.00 81 1012.9
20260507045611 8 71 0.0 3.2 0.00 1.50 0.00 81 1012.8
20260507045334 8 84 1.6 3.2 0.00 1.50 0.00 80 1013.0
20260507044614 8 75 1.6 3.2 0.00 1.52 0.00 80 1013.1
20260507044111 8 63 1.6 3.2 0.00 1.52 0.00 80 1013.0
20260507043611 8 76 1.6 3.2 0.00 1.52 0.00 79 1012.9
20260507043115 8 66 1.6 3.2 0.00 1.52 0.00 79 1013.1
20260507042613 8 70 1.6 3.2 0.00 1.52 0.00 79 1013.0
20260507042113 8 46 1.6 3.2 0.00 1.52 0.00 79 1013.1
20260507041617 8 77 0.0 3.2 0.00 1.52 0.00 77 1012.9
20260507041336 8 93 0.0 3.2 0.00 1.52 0.00 77 1013.1
20260507040611 8 87 0.0 3.2 0.00 1.52 0.00 75 1012.9
20260507040114 8 56 1.6 3.2 0.00 1.52 0.00 75 1013.0
20260507035611 8 89 1.6 3.2 0.00 1.52 1.52 74 1012.9
20260507035112 8 48 1.6 3.2 0.00 1.52 1.52 74 1012.7
20260507034615 8 70 1.6 3.2 0.00 1.52 1.52 74 1012.8
20260507034111 9 66 0.0 3.2 0.00 1.52 1.52 75 1013.1
20260507033836 9 77 0.0 3.2 0.00 1.52 1.52 74 1012.9
20260507033114 9 117 1.6 4.8 0.00 1.52 1.52 72 1012.7
20260507032612 9 106 0.0 4.8 0.00 1.52 1.52 70 1012.9
20260507032112 9 59 1.6 3.2 0.00 1.52 1.52 70 1012.8
20260507031615 9 325 1.6 3.2 0.00 1.52 1.52 70 1012.7
20260507031111 9 76 0.0 3.2 0.00 1.52 1.52 71 1012.5
20260507030612 9 15 0.0 3.2 0.00 1.52 1.52 71 1012.3
20260507030115 9 76 1.6 3.2 0.00 1.52 1.52 73 1012.8
20260507025612 9 106 1.6 3.2 0.00 1.52 1.52 71 1012.5
20260507025113 9 82 1.6 3.2 0.00 1.52 1.52 73 1012.4
20260507025106 9 63 0.0 3.2 0.00 1.52 1.52 72 1012.5
20260507024337 9 82 0.0 3.2 0.00 1.52 1.52 73 1012.4
20260507023611 9 81 1.6 3.2 0.00 1.52 1.52 72 1012.4
20260507023117 9 88 1.6 3.2 0.00 1.52 1.52 70 1012.5
20260507022613 10 36 0.0 3.2 0.00 1.52 1.52 70 1012.4
20260507022121 10 41 1.6 3.2 0.00 1.52 1.52 69 1012.2
20260507021836 10 100 0.0 4.8 0.00 1.52 1.52 70 1012.0
20260507021127 10 301 0.0 9.7 0.00 1.52 1.52 68 1012.0
20260507021113 10 140 0.0 9.7 0.00 1.52 1.52 70 1012.3
20260507020118 10 38 0.0 3.2 0.00 1.52 1.52 71 1012.1
20260507015614 10 55 0.0 3.2 0.00 1.52 1.52 70 1011.9
20260507015116 10 51 1.6 3.2 0.00 1.52 1.52 71 1011.9
20260507014617 10 69 1.6 3.2 0.00 1.52 1.52 69 1012.0
20260507014127 10 135 0.0 3.2 0.00 1.52 1.52 70 1011.7
20260507013614 10 63 0.0 4.8 0.00 1.52 1.52 69 1011.5
20260507013116 10 148 3.2 4.8 0.00 1.52 1.52 69 1011.4
20260507012612 10 106 0.0 4.8 0.00 1.52 1.52 70 1011.5
20260507012112 10 142 3.2 4.8 0.00 1.52 1.52 70 1011.5
20260507011620 10 67 1.6 3.2 0.00 1.52 1.52 71 1011.5
20260507011353 10 70 1.6 3.2 0.00 1.52 1.52 73 1011.4
20260507010614 10 59 1.6 4.8 0.00 1.52 1.52 70 1011.8
20260507010122 10 70 1.6 4.8 0.00 1.52 1.52 71 1011.8
20260507005611 10 94 0.0 4.8 0.00 1.52 1.52 71 1011.6
20260507005112 10 94 1.6 4.8 0.00 1.52 1.52 70 1011.7
20260507004614 10 85 1.6 4.8 0.00 1.52 1.52 70 1011.8
20260507004111 10 72 1.6 3.2 0.00 1.52 1.52 71 1012.0
20260507003611 11 114 0.0 4.8 0.00 1.52 1.52 72 1012.0
20260507003337 11 80 0.0 4.8 0.00 1.52 1.52 73 1011.8
20260507002615 11 94 1.6 6.4 0.00 1.52 1.52 73 1011.9
20260507002112 11 110 3.2 6.4 0.00 1.52 1.52 73 1011.9
20260507001615 11 114 3.2 11.3 0.00 1.52 1.52 75 1011.9
20260507001113 11 79 3.2 11.3 0.00 1.52 1.52 76 1012.0
20260507001107 11 228 0.0 3.2 0.00 1.52 1.52 77 1011.7
20260507000115 11 109 0.0 3.2 0.00 1.52 1.52 77 1011.6
20260506235612 11 70 1.6 3.2 0.00 1.52 1.52 77 1011.6
20260506235111 11 93 1.6 4.8 0.00 1.52 1.52 78 1011.5
20260506234614 11 117 1.6 4.8 0.00 1.52 1.52 75 1011.5
20260506234112 11 67 0.0 3.2 0.00 1.52 1.52 77 1011.3
20260506233611 12 93 1.6 3.2 0.00 1.52 1.52 77 1011.3
20260506233117 12 119 1.6 3.2 0.00 1.52 1.52 75 1011.4
20260506232613 11 207 0.0 3.2 0.00 1.52 1.52 75 1011.4
20260506232342 12 98 0.0 3.2 0.00 1.52 1.52 76 1011.1